RH
10 8 10 10 10 9 8 7 6 5 5 8 17 23 30 40 40 41 40 39 38 38 32 26 26 27 27 28 29 28 25 24 22 22 23 23 22 21 19 18 20 17 18 17 15 16 18
24 11 7 9 10 9 9 7 6 6 10 15 22 25 41 47 43 43 43 43 43 41 35 27 26 26 27 25 28 27 26 26 25 24 23 23 23 22 20 20 18 18 17 17 17 17 16
44 36 18 7 7 7 7 8 10 15 14 20 33 48 54 48 45 44 47 46 44 39 34 29 28 30 26 26 25 25 24 23 23 22 22 21 21 20 19 18 17 16 15 15 15 14 14
54 50 42 26 16 13 11 11 14 22 31 43 51 56 53 48 53 53 50 47 43 36 32 31 29 29 25 23 23 21 20 19 18 18 17 15 14 13 12 10 9 8 7 7 6 7 9
58 56 56 55 55 53 41 34 34 42 58 62 56 53 53 56 54 52 49 46 41 36 32 28 25 26 24 21 22 19 19 18 16 15 14 12 10 8 8 7 6 6 5 4 4 4 5
80 61 57 57 58 58 53 54 62 64 60 58 60 58 59 57 54 52 47 43 39 33 31 28 27 27 23 19 20 18 16 14 13 11 9 8 8 7 6 6 5 5 4 4 4 4 5
88 86 76 88 58 60 55 49 55 55 58 60 59 63 62 60 58 51 41 36 36 31 32 30 27 25 20 18 15 14 14 11 10 9 8 7 6 6 5 4 3 3 3 4 4 6 8
90 90 94 90 66 75 66 54 59 61 64 72 67 60 56 59 56 47 39 35 33 31 28 26 24 20 19 16 15 14 11 10 9 8 7 6 5 4 3 3 2 2 2 2 2 3 15
96 83 96 79 67 78 82 63 65 63 72 73 66 59 57 56 50 46 44 40 36 31 26 26 22 21 19 17 15 12 11 10 9 8 6 5 4 3 2 2 2 2 2 2 3 4 16
94 95 90 94 74 79 86 76 70 66 80 69 62 60 58 52 50 48 44 38 34 33 28 25 23 19 18 18 15 13 12 10 8 7 5 4 3 2 2 2 2 2 5 10 9 11 13
96 94 85 97 93 81 85 89 77 73 74 73 69 60 52 46 48 46 42 40 39 35 29 26 24 21 20 18 16 13 11 9 7 6 5 3 2 2 2 3 3 4 6 11 22 34 25
94 97 94 93 100 84 84 86 87 86 76 77 66 58 53 49 50 50 47 41 38 34 32 28 26 24 21 18 15 13 10 8 7 4 3 2 3 4 4 4 5 9 16 32 25 28 29
95 94 94 94 96 88 84 85 82 82 79 77 63 60 56 49 52 53 49 43 42 37 32 30 28 25 21 18 15 12 10 8 5 4 3 2 4 5 5 5 8 26 53 42 29 83 100
94 91 95 89 84 82 86 82 85 80 82 75 66 63 57 57 59 57 51 48 45 39 37 32 29 25 21 18 15 11 10 7 4 2 2 2 4 6 5 6 11 29 68 67 88 74 72
86 94 95 94 84 84 82 85 88 84 84 75 70 68 60 61 63 58 55 50 44 41 37 34 30 26 21 17 14 12 9 6 4 2 3 4 4 7 7 10 28 66 72 100 100 100 92
90 90 95 95 87 87 86 89 92 87 85 82 78 71 69 66 64 60 56 51 46 43 40 36 30 25 21 17 14 10 7 5 3 4 6 6 6 8 8 11 81 100 72 70 87 96 80
90 97 96 97 94 94 88 92 94 88 87 84 77 71 72 68 65 61 55 55 51 46 42 37 30 25 21 18 14 8 5 4 3 5 7 8 8 9 10 17 41 78 100 100 88 96 95
95 96 94 96 100 96 89 95 94 93 86 85 79 73 70 69 68 61 60 56 53 49 44 36 30 25 21 18 12 6 3 3 5 6 7 8 9 11 11 14 41 78 75 94 93 92 100
97 95 89 95 100 95 94 96 96 89 90 87 80 75 76 75 70 66 62 61 56 50 45 36 30 26 22 16 8 5 3 4 6 8 8 9 11 12 14 25 46 63 94 100 100 100 94
97 95 91 96 97 95 97 96 95 92 90 86 83 81 75 70 72 70 66 65 56 55 45 38 32 26 20 12 6 4 4 5 7 8 8 11 14 14 15 23 46 81 89 87 100 95 95
97 93 94 99 97 95 95 95 95 92 93 88 84 82 75 72 76 74 71 69 59 56 45 38 32 28 19 8 5 4 4 6 8 9 10 12 15 17 16 17 28 64 96 96 98 93 80
98 96 99 100 96 96 96 96 94 93 91 87 82 80 77 76 79 79 76 66 63 56 45 38 32 27 17 9 5 4 5 6 8 10 12 14 19 20 20 18 16 17 29 60 71 87 82
96 96 99 98 96 96 96 96 97 92 91 89 84 83 80 84 86 84 81 70 67 53 45 37 31 23 12 8 4 5 5 7 9 11 13 15 20 24 25 24 23 20 20 18 27 56 92
95 96 98 96 96 96 96 96 94 94 94 93 88 84 90 95 89 88 82 76 66 53 41 37 29 17 12 6 5 6 6 9 12 13 15 16 22 28 29 31 31 30 28 25 23 20 20
97 98 97 98 97 95 96 97 95 94 97 95 92 93 94 97 93 91 87 82 61 53 38 34 27 19 8 6 6 6 7 9 13 15 18 20 23 28 31 33 34 38 39 38 35 33 31
98 98 98 95 92 95 96 96 97 96 97 96 95 96 99 96 95 95 94 76 64 51 38 30 21 14 10 6 6 8 9 11 14 17 21 24 27 31 34 39 39 42 41 45 49 48 44
98 98 93 91 92 97 96 97 98 97 97 96 98 99 98 98 98 97 94 80 67 51 34 24 19 13 12 7 8 9 10 12 15 18 24 32 36 39 43 44 43 46 49 48 46 48 52
98 99 93 95 94 96 97 98 98 98 96 98 99 98 98 98 98 98 95 83 72 55 37 27 18 14 10 8 9 11 13 16 17 20 22 26 32 36 40 45 48 52 59 61 60 58 56
100 94 97 96 96 97 98 98 99 96 98 98 98 98 99 98 97 99 96 90 82 62 37 28 17 13 10 10 12 14 17 20 22 24 26 28 31 40 46 52 55 61 66 72 80 81 80
Wind_Speed
18 18 20 23 24 23 23 22 23 24 24 23 23 22 21 21 21 21 21 23 22 22 21 21 20 20 20 20 19 22 24 25 27 28 31 33 37 40 42 43 44 50 45 47 49 50 49
17 18 19 19 21 22 22 22 24 25 24 24 23 23 21 21 21 22 22 22 24 24 22 21 21 21 21 21 21 23 25 28 31 34 35 38 41 45 48 49 51 54 57 58 56 56 55
17 17 19 18 19 21 21 21 22 22 23 23 22 22 22 23 24 23 24 24 24 23 23 22 23 24 24 25 25 27 28 30 33 36 38 42 45 48 50 53 56 58 62 63 66 69 68
18 18 17 17 17 19 22 22 23 22 22 22 22 23 24 25 25 25 23 24 24 23 25 26 25 26 28 26 27 30 34 36 37 39 41 43 45 48 52 55 57 61 63 66 70 70 73
22 20 20 19 19 21 21 21 21 21 21 21 22 23 25 25 25 25 25 25 23 24 26 27 26 28 29 31 33 36 36 37 39 41 45 49 51 54 58 61 65 69 74 77 81 82 83
23 24 23 21 19 21 21 22 21 21 22 22 23 24 25 25 25 26 26 26 25 26 27 27 27 32 32 35 31 37 38 40 44 46 48 51 55 57 62 66 71 75 78 80 83 87 88
27 27 29 26 20 21 23 23 22 21 22 24 25 25 25 27 27 26 27 27 28 24 25 29 34 32 34 36 35 36 39 42 45 50 52 55 59 65 69 71 72 78 85 89 92 89 88
28 31 30 26 22 22 23 22 21 20 21 23 24 25 26 24 25 28 28 29 28 31 32 31 34 33 36 36 40 45 46 50 50 51 54 56 59 63 65 69 76 82 86 83 79 72 68
34 32 34 25 24 23 23 23 20 20 21 22 24 25 24 25 25 27 28 30 32 32 33 34 34 39 40 44 49 49 52 54 56 60 63 67 67 71 72 72 68 64 66 69 73 69 64
29 28 31 30 27 26 23 23 22 21 21 20 23 26 25 27 27 29 29 31 33 35 37 32 38 40 42 50 50 54 57 59 61 64 67 69 69 68 68 65 63 60 58 55 56 59 60
34 28 28 28 28 26 24 25 25 26 22 23 26 27 25 30 29 28 31 34 36 38 40 37 40 44 50 54 57 58 62 62 63 68 68 66 64 63 57 56 56 55 53 51 42 38 40
26 25 31 30 28 25 25 26 26 24 24 24 26 25 28 31 30 32 35 37 39 40 40 42 46 50 55 54 57 60 62 63 63 62 61 57 52 52 52 50 45 44 42 40 34 24 27
27 27 29 25 24 25 24 23 23 22 22 24 27 26 31 33 33 36 37 39 41 41 43 45 48 54 57 57 60 61 65 65 61 65 60 55 43 44 45 46 39 32 33 36 26 11 14
29 27 28 22 24 26 24 23 19 20 23 25 28 30 33 35 36 38 38 43 44 42 42 48 52 55 57 58 59 59 64 64 59 59 57 55 41 43 42 41 39 25 19 21 23 17 23
30 28 31 27 25 26 25 22 21 22 24 27 31 33 37 38 40 40 41 45 46 45 47 49 53 53 55 55 58 60 62 61 59 56 53 51 42 35 38 35 28 20 13 17 17 18 24
30 32 33 25 26 26 24 23 23 24 27 29 31 33 38 39 40 43 44 45 47 48 49 51 52 55 57 56 57 57 59 58 54 50 50 48 47 38 34 25 19 22 19 21 23 27 27
35 30 26 24 25 25 23 25 25 26 28 30 32 35 37 39 42 44 45 48 49 50 50 51 52 54 55 55 56 54 54 55 50 44 45 47 45 38 32 23 18 19 17 20 22 23 27
31 33 24 24 23 23 24 26 24 26 28 30 35 36 39 41 45 45 48 49 50 50 49 50 53 53 54 53 52 51 50 49 46 44 44 43 43 38 32 24 18 19 20 19 21 23 22
31 31 27 25 25 24 24 25 25 27 30 33 36 38 40 43 44 48 50 51 50 50 50 51 53 53 52 49 49 48 47 48 44 43 44 42 40 37 33 28 19 20 19 20 20 19 20
29 29 26 26 25 22 25 26 28 30 31 35 37 40 41 43 48 50 51 51 51 51 51 52 52 50 48 47 45 44 43 44 41 42 43 40 38 36 34 30 27 24 23 23 23 24 24
29 27 27 24 24 23 27 29 28 29 33 35 38 40 42 47 50 51 52 52 50 50 51 51 50 48 44 42 41 41 41 41 41 40 38 38 36 33 32 30 30 31 31 32 33 31 29
29 26 25 24 26 27 29 28 29 31 34 35 38 41 45 49 51 52 52 51 50 49 50 49 48 46 42 40 38 38 38 38 38 39 37 37 35 34 30 29 27 26 30 32 34 36 35
28 27 24 24 26 26 28 28 30 32 33 36 40 44 48 51 52 53 52 50 48 48 48 46 44 42 39 38 36 36 38 37 36 35 35 35 35 33 29 28 26 24 24 25 26 28 29
26 24 25 24 23 26 26 27 30 33 34 37 42 46 51 52 53 53 52 49 46 46 44 44 41 38 37 36 35 34 35 35 35 34 33 35 35 32 30 28 26 25 25 24 24 25 27
26 26 24 25 25 27 29 29 33 35 38 41 44 49 53 54 54 52 51 48 45 45 42 41 39 36 34 33 33 33 33 32 32 34 32 32 33 32 29 28 26 26 24 22 22 23 22
32 27 24 26 28 28 29 31 33 36 40 43 47 52 54 55 53 52 49 45 44 43 41 39 38 35 33 32 32 31 31 31 31 31 32 30 31 31 30 27 26 23 23 25 24 22 23
32 26 26 27 26 29 30 33 35 38 42 46 50 54 55 55 53 50 46 44 43 41 39 38 36 34 32 31 30 30 29 28 29 30 31 32 32 30 28 26 25 25 24 22 23 23 22
27 28 29 30 32 31 33 35 38 40 45 49 53 56 56 55 53 48 44 42 41 40 39 38 35 34 31 29 29 29 28 27 27 29 30 30 31 30 30 28 28 27 28 28 26 26 26
32 30 30 31 34 34 36 39 39 43 48 51 56 57 56 55 50 45 43 41 41 38 37 37 35 34 31 29 27 27 26 26 27 28 29 30 31 31 30 29 29 30 29 30 29 29 28
Wind_Direction
307 303 290 283 281 282 284 289 295 299 302 304 308 310 312 313 312 315 316 316 315 315 314 317 313 311 307 304 309 302 302 301 299 296 294 292 292 291 292 292 292 291 290 285 285 284 282
313 310 304 298 292 288 289 292 296 300 301 304 307 309 311 311 310 314 314 312 312 313 311 312 315 313 310 309 303 301 300 298 296 296 295 293 293 293 294 293 293 292 292 292 288 284 281
307 309 310 305 302 298 294 295 299 301 302 306 308 308 309 311 310 312 313 313 312 310 308 307 311 312 312 314 311 308 302 298 296 295 293 291 289 289 290 291 290 289 287 287 287 289 285
302 306 311 314 312 310 306 304 303 305 308 310 308 310 310 309 312 311 313 312 311 310 309 309 311 310 308 309 310 305 304 303 300 298 295 294 294 294 293 292 291 290 288 288 287 282 279
298 300 305 307 312 312 311 308 310 313 313 312 309 307 308 311 312 312 314 313 311 310 310 308 308 305 306 308 308 306 305 304 301 299 299 299 298 298 296 293 291 291 289 285 283 282 278
301 300 299 301 306 310 311 312 314 314 313 308 305 309 313 314 312 316 314 311 309 310 308 308 308 307 307 310 311 310 307 304 305 305 302 301 300 298 295 295 293 290 286 278 275 272 266
299 298 294 292 298 304 307 309 311 313 312 311 313 315 313 310 311 314 316 315 313 306 310 311 311 310 313 312 311 312 312 310 310 311 311 309 303 303 301 299 292 284 276 271 266 265 262
296 298 304 293 292 301 301 305 307 312 313 314 319 320 318 316 315 317 317 316 315 314 311 313 314 314 315 317 318 320 319 318 317 316 314 308 300 298 295 288 283 276 275 277 276 271 265
298 299 297 288 287 295 298 301 301 308 311 319 321 319 320 320 318 318 319 316 312 311 311 319 317 319 325 324 325 323 322 323 324 323 321 316 311 307 299 293 290 287 281 277 275 271 263
304 303 304 285 282 289 297 295 295 302 308 315 320 324 323 323 320 321 318 317 318 321 315 319 318 321 328 330 329 328 327 327 326 324 322 316 311 306 302 300 299 294 289 282 275 273 271
297 295 299 296 289 288 292 291 286 291 300 299 314 320 325 323 321 323 322 323 322 322 321 322 327 329 334 333 332 330 331 331 329 326 323 317 312 306 304 302 299 296 290 291 291 283 276
294 299 303 297 292 288 290 295 292 288 293 301 308 313 321 326 326 325 327 326 327 325 326 330 333 334 335 334 333 332 333 331 329 325 321 316 313 308 308 307 306 301 297 294 300 298 276
286 298 313 301 291 287 290 295 296 291 296 300 309 311 318 326 326 327 327 327 329 328 330 331 334 335 335 335 333 333 333 334 329 326 324 321 321 315 315 312 305 301 292 297 307 264 285
287 295 301 291 285 284 288 290 297 297 299 301 309 312 319 323 323 324 325 327 327 327 330 335 336 336 334 334 333 332 333 333 331 324 323 322 327 317 314 314 313 318 305 308 305 288 279
281 291 296 296 277 279 284 289 288 293 302 306 308 313 320 322 325 327 325 326 327 329 333 334 334 334 333 335 333 333 334 332 330 328 327 325 332 323 318 317 305 304 277 288 297 289 292
286 286 288 291 274 278 283 291 290 295 301 305 308 315 320 322 325 326 325 326 327 329 331 333 334 334 335 335 334 334 336 335 332 331 329 328 328 324 319 310 289 285 290 285 294 299 290
282 286 282 276 269 275 283 291 291 296 301 305 311 317 320 323 325 325 326 326 326 329 331 333 333 334 335 336 336 336 336 333 333 333 330 326 325 327 320 310 285 272 273 292 296 300 306
280 288 275 269 267 272 281 290 295 297 303 305 311 318 321 324 326 326 326 326 327 329 331 332 334 334 336 338 338 336 336 333 334 334 331 326 325 324 322 317 287 276 283 290 289 292 295
278 278 278 266 266 271 281 290 294 300 304 309 314 317 320 324 326 325 326 326 326 329 331 334 334 334 337 339 337 338 336 335 335 336 332 329 327 325 320 314 298 283 285 290 291 292 287
280 278 265 263 268 270 283 293 295 301 306 310 314 317 321 325 324 325 326 326 327 330 332 334 332 334 338 339 338 338 336 334 336 336 333 331 330 324 319 312 305 294 284 285 297 298 293
278 267 266 258 267 273 285 291 296 299 307 313 315 318 323 325 325 325 325 325 327 329 331 332 331 335 338 337 336 337 337 337 338 338 335 333 332 326 321 312 302 291 285 283 286 290 290
269 263 255 259 268 274 285 291 296 301 308 313 317 320 323 324 325 325 325 325 327 327 330 330 331 335 337 335 336 336 336 338 339 339 337 335 334 330 325 318 314 303 293 286 283 282 284
264 258 254 266 274 281 286 290 296 302 307 313 317 321 324 324 325 325 324 324 325 326 328 329 332 333 333 333 334 337 337 339 342 343 338 337 335 330 326 321 319 315 307 300 293 287 284
258 256 261 268 276 283 288 291 296 302 306 313 317 320 322 323 323 324 322 321 323 325 326 327 330 329 329 332 334 338 338 341 342 344 342 340 337 333 330 325 322 320 317 314 311 304 296
250 257 262 271 274 285 287 289 298 302 305 312 316 320 321 321 321 322 320 320 322 324 324 325 327 325 326 330 333 336 338 340 343 344 342 342 340 337 335 333 329 325 325 319 316 314 310
247 253 265 272 280 283 287 289 297 301 306 312 316 318 319 319 320 320 318 318 321 321 322 323 323 322 324 328 333 335 337 341 345 343 343 341 339 341 338 333 331 329 327 322 319 313 310
245 255 268 274 278 283 287 291 296 303 308 310 315 316 318 318 319 318 317 316 318 318 320 320 319 318 322 325 330 333 336 340 344 345 345 342 338 338 338 335 335 333 330 329 326 322 318
243 263 267 277 281 283 287 292 298 303 306 310 314 315 317 317 318 316 315 314 316 317 318 317 316 316 318 323 327 331 336 341 343 345 344 342 340 340 338 336 336 334 332 331 329 326 324
251 260 274 278 280 287 289 292 299 304 307 309 314 316 314 316 316 315 313 313 314 315 316 315 313 313 316 319 325 328 337 340 343 345 344 341 339 338 341 340 338 335 334 331 328 324 319